CW3660 Weather Reports


Display with metric or nautical units.
time (UTC)temp
F
wind
direction
speed
MPH
gust
MPH
rain 1hr
in
rain 24hr
in
rain mn
in
humidity
%
barometer
mb
20260904141016 75 0.0 3.0 0.00 0.00 0.00 81 1009.7
20260904140016 73 293 1.0 3.0 0.00 0.00 0.00 86 1009.9
20260904135015 72 0 1.0 4.0 0.00 0.00 0.00 90 1009.8
20260904134015 71 315 1.0 3.0 0.00 0.00 0.00 92 1009.7
20260904133035 70 0.0 3.0 0.00 0.00 0.00 94 1009.9
20260904132015 69 248 1.0 2.0 0.00 0.00 0.00 96 1010.0
20260904131016 68 248 1.0 4.0 0.00 0.00 0.00 96 1009.9
20260904130016 67 315 1.0 3.0 0.00 0.00 0.00 96 1009.9
20260904125016 66 315 1.0 4.0 0.00 0.00 0.00 96 1010.0
20260904124015 66 0.0 3.0 0.00 0.00 0.00 96 1009.9
20260904123016 65 23 1.0 5.0 0.00 0.00 0.00 96 1009.9
20260904122016 65 23 2.0 5.0 0.00 0.00 0.00 96 1010.0
20260904121015 65 0.0 3.0 0.00 0.00 0.00 96 1010.1
20260904120015 65 0 1.0 3.0 0.00 0.00 0.00 96 1009.9
20260904115015 65 0 1.0 4.0 0.00 0.00 0.00 96 1009.9
20260904114015 65 0.0 3.0 0.00 0.00 0.00 96 1009.8
20260904113036 64 45 1.0 4.0 0.00 0.00 0.00 96 1009.8
20260904112016 65 0.0 2.0 0.00 0.00 0.00 96 1009.9
20260904111015 64 45 1.0 3.0 0.00 0.00 0.00 96 1009.9
20260904110015 64 0.0 2.0 0.00 0.01 0.00 96 1009.9
20260904105035 64 0.0 0.0 0.00 0.01 0.00 96 1009.9
20260904104035 64 0.0 2.0 0.00 0.01 0.00 96 1009.8
20260904103035 65 0.0 2.0 0.00 0.01 0.00 96 1009.6
20260904102035 65 0.0 1.0 0.00 0.01 0.00 96 1009.5
20260904101015 65 45 1.0 3.0 0.00 0.02 0.00 96 1009.3
20260904100015 65 0.0 1.0 0.00 0.03 0.00 96 1009.2
20260904095015 65 0.0 0.0 0.00 0.03 0.00 96 1009.3
20260904094035 65 0.0 0.0 0.00 0.05 0.00 96 1009.3
20260904093015 65 0.0 1.0 0.00 0.05 0.00 96 1009.4
20260904092015 65 0.0 1.0 0.00 0.06 0.00 96 1009.4
20260904091037 65 0.0 0.0 0.00 0.08 0.00 96 1009.4
20260904090037 65 0.0 1.0 0.00 0.08 0.00 96 1009.4
20260904085017 65 0.0 2.0 0.00 0.08 0.00 96 1009.3
20260904084017 65 0.0 1.0 0.00 0.08 0.00 96 1009.4
20260904083017 65 0.0 1.0 0.00 0.08 0.00 96 1009.5
20260904082017 65 0.0 2.0 0.00 0.08 0.00 96 1009.5
20260904081037 65 0.0 0.0 0.00 0.09 0.00 96 1009.8
20260904080017 65 0.0 0.0 0.00 0.12 0.00 96 1009.8
20260904075017 65 0.0 2.0 0.00 0.13 0.00 96 1009.8
20260904074017 65 0.0 2.0 0.00 0.13 0.00 96 1009.8
20260904073017 65 0.0 2.0 0.00 0.13 0.00 96 1009.7
20260904072037 65 0.0 2.0 0.00 0.13 0.00 96 1009.8
20260904071017 65 0.0 1.0 0.00 0.13 0.00 95 1009.7
20260904070017 65 158 1.0 2.0 0.00 0.13 0.00 95 1009.8
20260904065037 65 0.0 2.0 0.00 0.13 0.00 95 1009.7
20260904064037 65 0.0 1.0 0.00 0.13 0.00 95 1009.8
20260904063017 65 0.0 1.0 0.00 0.13 0.00 95 1010.1
20260904062017 65 158 1.0 2.0 0.00 0.13 0.00 95 1010.1
20260904061037 65 0.0 2.0 0.00 0.13 0.00 95 1010.2
20260904060017 65 0.0 2.0 0.00 0.13 0.00 95 1010.3
20260904055017 65 158 1.0 3.0 0.00 0.13 0.00 95 1010.6
20260904054017 65 158 1.0 3.0 0.00 0.13 0.00 95 1010.7
20260904053017 65 135 1.0 3.0 0.00 0.13 0.00 95 1010.9
20260904052017 66 135 1.0 3.0 0.00 0.13 0.00 94 1010.8
20260904051017 66 0.0 2.0 0.00 0.13 0.00 94 1010.9
20260904050017 66 113 1.0 4.0 0.00 0.13 0.00 94 1010.8
20260904045017 66 0.0 2.0 0.00 0.13 0.00 94 1010.9
20260904044037 66 0.0 2.0 0.00 0.13 0.00 93 1011.1
20260904043017 66 0.0 2.0 0.00 0.13 0.00 93 1011.1
20260904042016 66 0.0 2.0 0.00 0.13 0.00 93 1011.1
20260904041017 67 0.0 2.0 0.00 0.13 0.00 93 1011.1
20260904040017 67 0.0 1.0 0.00 0.13 0.13 93 1011.4
20260904035037 67 158 1.0 3.0 0.00 0.13 0.13 93 1011.2
20260904034017 68 0.0 2.0 0.00 0.13 0.13 92 1011.3
20260904033017 68 0.0 2.0 0.00 0.13 0.13 92 1011.2
20260904032017 68 0.0 1.0 0.00 0.13 0.13 92 1011.3
20260904031017 68 0.0 1.0 0.00 0.13 0.13 92 1011.2
20260904030017 68 0.0 1.0 0.00 0.13 0.13 92 1011.2
20260904025017 69 158 1.0 3.0 0.00 0.13 0.13 92 1011.2
20260904024017 69 0.0 2.0 0.00 0.13 0.13 91 1011.4
20260904023017 69 0.0 1.0 0.00 0.13 0.13 91 1011.5
20260904022017 69 180 1.0 3.0 0.00 0.13 0.13 91 1011.5
20260904021017 70 180 1.0 3.0 0.00 0.13 0.13 91 1011.6
20260904020017 70 0.0 2.0 0.00 0.13 0.13 91 1011.6
20260904015017 70 180 1.0 3.0 0.00 0.13 0.13 91 1011.7
20260904014017 70 180 1.0 3.0 0.00 0.13 0.13 90 1011.7
20260904013017 71 0.0 2.0 0.00 0.13 0.13 90 1011.7
20260904012017 71 0.0 1.0 0.00 0.13 0.13 90 1011.8
20260904011037 71 0.0 1.0 0.00 0.13 0.13 90 1011.9
20260904010017 71 0.0 2.0 0.00 0.13 0.13 89 1011.9
20260904005017 72 180 1.0 2.0 0.00 0.13 0.13 89 1011.6
20260904004037 72 158 1.0 4.0 0.00 0.13 0.13 88 1011.6
20260904003017 72 158 1.0 4.0 0.00 0.13 0.13 88 1011.4
20260904002157 72 0.0 3.0 0.00 0.13 0.13 87 1011.2
20260904001017 73 0.0 2.0 0.00 0.13 0.13 86 1011.0
20260904000017 73 0.0 1.0 0.00 0.13 0.13 86 1011.1
20260903235017 74 0.0 1.0 0.00 0.13 0.13 85 1011.1
20260903234017 74 0.0 2.0 0.00 0.13 0.13 84 1011.0
20260903233037 74 0.0 3.0 0.00 0.13 0.13 84 1010.9
20260903232017 75 0.0 0.0 0.00 0.13 0.13 83 1011.0
20260903231017 75 0.0 1.0 0.00 0.13 0.13 82 1011.1
20260903230017 75 0.0 1.0 0.00 0.13 0.13 82 1011.1
20260903225017 76 0.0 3.0 0.00 0.13 0.13 81 1011.0
20260903224017 76 158 1.0 4.0 0.00 0.13 0.13 80 1010.9
20260903223017 76 158 1.0 3.0 0.00 0.13 0.13 79 1011.1
20260903222037 77 158 1.0 3.0 0.00 0.13 0.13 79 1011.5
20260903221037 77 0.0 3.0 0.00 0.13 0.13 78 1011.5
20260903220017 77 0.0 0.0 0.00 0.13 0.13 78 1011.5
20260903215017 77 0.0 1.0 0.00 0.13 0.13 77 1011.4
20260903214017 77 158 1.0 3.0 0.00 0.13 0.13 77 1011.4
20260903213017 77 0.0 3.0 0.00 0.13 0.13 77 1011.4
20260903212017 77 0.0 1.0 0.00 0.13 0.13 76 1011.4
20260903211017 77 180 2.0 4.0 0.00 0.13 0.13 76 1011.3
20260903210017 78 158 2.0 4.0 0.00 0.13 0.13 74 1011.3
20260903205016 79 180 2.0 6.0 0.00 0.13 0.13 73 1011.3
20260903204016 79 0.0 3.0 0.00 0.13 0.13 74 1011.6
20260903203016 78 158 1.0 4.0 0.00 0.13 0.13 73 1011.5
20260903202016 77 158 1.0 3.0 0.00 0.13 0.13 76 1011.5
20260903201016 76 0 1.0 4.0 0.00 0.13 0.13 78 1011.5
20260903200017 76 45 1.0 4.0 0.00 0.13 0.13 77 1011.7
20260903195016 76 113 1.0 4.0 0.00 0.13 0.13 77 1011.8
20260903194037 76 113 1.0 5.0 0.00 0.13 0.13 77 1012.0
20260903193036 76 158 1.0 4.0 0.00 0.13 0.13 79 1012.1
20260903192016 74 0.0 2.0 0.00 0.13 0.13 80 1012.3
20260903191016 74 0.0 3.0 0.00 0.13 0.13 80 1012.2
20260903190016 74 90 1.0 3.0 0.00 0.13 0.13 81 1012.3
20260903185016 73 180 1.0 4.0 0.00 0.13 0.13 81 1012.4
20260903184016 73 180 1.0 4.0 0.00 0.13 0.13 82 1012.6
20260903183016 73 113 1.0 4.0 0.00 0.13 0.13 83 1012.6
20260903182016 72 158 1.0 4.0 0.00 0.13 0.13 83 1012.6
20260903181016 72 0.0 2.0 0.00 0.13 0.13 84 1012.9
20260903180016 72 338 1.0 4.0 0.00 0.13 0.13 85 1013.0
20260903175016 72 338 1.0 4.0 0.00 0.13 0.13 86 1013.0
20260903174016 71 0 1.0 5.0 0.00 0.13 0.13 85 1013.2
20260903173016 71 0 2.0 5.0 0.00 0.13 0.13 85 1013.3
20260903172017 71 23 1.0 4.0 0.00 0.13 0.13 86 1013.2
20260903171016 70 0.0 3.0 0.00 0.13 0.13 86 1013.0
20260903170036 70 0 1.0 5.0 0.00 0.13 0.13 87 1013.0
20260903165016 70 0 2.0 5.0 0.00 0.13 0.13 87 1013.0
20260903164016 70 315 2.0 6.0 0.00 0.13 0.13 88 1013.0
20260903163016 69 0 1.0 4.0 0.00 0.13 0.13 89 1013.1
20260903162016 69 23 2.0 5.0 0.00 0.13 0.13 90 1013.1
20260903161016 68 23 1.0 4.0 0.00 0.13 0.13 90 1013.1
20260903160036 68 0.0 3.0 0.00 0.13 0.13 91 1013.0
20260903155016 67 0 1.0 4.0 0.00 0.13 0.13 91 1013.2
20260903154036 67 0.0 2.0 0.00 0.13 0.13 92 1013.3
20260903153036 67 0.0 2.0 0.00 0.13 0.13 92 1013.7
20260903152016 67 0.0 1.0 0.00 0.13 0.13 93 1013.7
20260903151016 66 0.0 3.0 0.00 0.13 0.13 94 1013.8
20260903150016 66 23 1.0 4.0 0.00 0.13 0.13 94 1013.9
20260903145016 66 0.0 2.0 0.00 0.13 0.13 94 1013.8
20260903144016 65 0 1.0 2.0 0.00 0.13 0.13 94 1014.0
20260903143036 65 0.0 2.0 0.00 0.13 0.13 95 1013.9
20260903142016 65 0.0 3.0 0.00 0.13 0.13 95 1013.9